Regional Weather Roundup
Issued by NWS

Home | Current Version | Previous Version | Graphics & Text | Print | Product List | Glossary On
Versions: 1 2 3 4 5 6 7 8 9 10 11 12 13 14 15 16 17 18 19 20 21 22 23 24 25 26 27 28
000
ASUS45 KBOU 281810
RWRCO

WEATHER ROUNDUP FOR COLORADO
NATIONAL WEATHER SERVICE DENVER/BOULDER CO
1200 PM MDT WED SEP 28 2016

NOTE: "FAIR" INDICATES FEW OR NO CLOUDS BELOW 12000 FEET WITH NO
SIGNIFICANT WEATHER AND/OR OBSTRUCTIONS TO VISIBILITY.

COZ001>005-013-030-031-281900-
...NORTHWEST COLORADO...

CITY           SKY/WX    TMP DP  RH WIND       PRES   REMARKS
CRAIG          FAIR      69  36  29 W7        30.33F
HAYDEN         FAIR      72  32  23 N3        30.33F
MEEKER         FAIR      69  40  34 VRB5      30.33F
MOUNT WERNER   NOT AVBL
STEAMBOAT SPGS FAIR      69  33  26 NW3       30.34F
WALDEN           N/A     63  27  25 CALM      30.46F
$$

COZ006>008-011-281900-
...WEST CENTRAL VALLEYS...

CITY           SKY/WX    TMP DP  RH WIND       PRES   REMARKS
GRAND JUNCTION FAIR      74  37  26 SE6       30.24F
MONTROSE       FAIR      70  39  32 VRB6      30.31F
EAGLE          SUNNY     64  34  32 CALM      30.38F
RIFLE          FAIR      69  38  32 SW3       30.28F
DELTA          FAIR      73  37  26 SE3       30.27F
NUCLA          FAIR      70  34  26 NW3       30.34F
$$

COZ017>023-064>068-281900-
...SOUTHWEST COLORADO...

CITY           SKY/WX    TMP DP  RH WIND       PRES   REMARKS
DURANGO        FAIR      70  29  21 SE8       30.37F
CORTEZ         FAIR      73  36  25 SW8       30.31F
PAGOSA SPRINGS FAIR      67  23  18 CALM      30.43F
TELLURIDE      FAIR      67  30  24 SE7       30.49F
WOLF CREEK PAS PTSUNNY   50  23  34 CALM      30.71F
$$

COZ009-010-012-014-032>034-037-058>063-281900-
...CENTRAL COLORADO...

CITY           SKY/WX    TMP DP  RH WIND       PRES   REMARKS
ASPEN          FAIR      70  33  25 N8        30.39F
BUENA VISTA    FAIR      68  25  20 CALM      30.47F
COPPER MTN     FAIR      61  19  20 SE18      30.70F
BERTHOUD PASS  FAIR      46  32  57 E23G30    30.74F
COTTONWOOD PAS FAIR      64  19  17 E13G22    30.59F
GUNNISON       FAIR      64  30  27 N7        30.43F
KREMMLING      FAIR      61  23  23 CALM      30.43F
LEADVILLE      FAIR      61  22  22 S17       30.56F
MONARCH PASS   FAIR      48  27  43 NE20      30.80F
SALIDA         FAIR      70  27  19 E8        30.52F
SUNLIGHT       FAIR      61  32  33 S3        30.64S
WILKERSON PASS FAIR      57  21  24 S5        30.71F
$$

COZ069>075-281900-
...SAN LUIS VALLEY/SANGRE DE CRISTO MOUNTAINS...

CITY           SKY/WX    TMP DP  RH WIND       PRES   REMARKS
ALAMOSA        FAIR      67  30  25 CALM      30.44F
LA VETA PASS   FAIR      63  30  29 MISG      30.61S
SAGUACHE       NOT AVBL
$$

COZ035-036-038>040-281900-
...NORTHERN COLORADO FRONT RANGE...

CITY           SKY/WX    TMP DP  RH WIND       PRES   REMARKS
DENVER INTL AP FAIR      75  28  17 E3        30.34F
DMNS CITY PARK   N/A     76  32  20 NW2G8     30.34F
AURORA         MOSUNNY   74  30  20 VRB5      30.36F
FRONT RANGE AP MOSUNNY   75  28  17 CALM      30.36F
ERIE MUNI ARPT FAIR      74  30  19 NW3       30.34F
BOULDER MUN AP FAIR      73  32  21 NE6       30.35S
CENTENNIAL     FAIR      72  32  23 NW6       30.37F
BROOMFIELD     MOSUNNY   73  32  21 N7        30.37F
FORT COLLINS   FAIR      73  36  25 SE3       30.33F
LONGMONT       FAIR      78  33  19 NE7       30.35F
$$

COZ041-046-047-076>085-087-088-281900-
...PIKES PEAK/PALMER DIVIDE AND SOUTHERN FOOTHILLS...

CITY           SKY/WX    TMP DP  RH WIND       PRES   REMARKS
COLO. SPRINGS  FAIR      78  22  12 S10G18    30.38F
A. F. ACADEMY  FAIR      76  24  14 SE7       30.39F
SCHRIEVER AFB  NOT AVBL
ELLICOTT       NOT AVBL
FALCON         FAIR      76  22  13 SE5       30.43F
FORT CARSON    FAIR      78  25  14 E9G17     30.35F
LIMON          FAIR      77  27  15 SE8       30.34F
MONUMENT HILL  FAIR      70  28  21 S6        30.45F
TRINIDAD       FAIR      77  31  18 VRB5      30.35F
$$

COZ042>045-048>051-090-091-281900-
...NORTHEAST COLORADO...

CITY           SKY/WX    TMP DP  RH WIND       PRES   REMARKS
GREELEY ARPT   FAIR      77  43  29 S7        30.33F
AKRON          FAIR      76  38  25 E8        30.32F
BURLINGTON     FAIR      80  36  20 E7        30.28F
WRAY           NOT AVBL
STERLING       FAIR      77  41  27 NE6       30.28F
HOLYOKE        FAIR      81  41  24 NE9       30.27F
FORT MORGAN    NOT AVBL
$$

COZ086-089-092>099-281900-
...SOUTHEAST COLORADO...

CITY           SKY/WX    TMP DP  RH WIND       PRES   REMARKS
PUEBLO         FAIR      78  32  18 VRB5      30.29F
LA JUNTA       FAIR      78  36  21 SE7       30.27F
LAMAR          FAIR      79  39  23 E6        30.23F
SPRINGFIELD    NOT AVBL
$$




USA.gov is the U.S. government's official web portal to all federal, state and local government web resources and services.